Location: Unspecified
(50.7693°N, 0.0000°E)
Time: 12:26:11
(UTC+00:00)

deb Explorer IX - Pass Details

Date: 22 June 2019
Orbit: 539 x 1111 km, 38.8° (Epoch: 18 August)

Event Time Altitude Azimuth Distance (km) Brightness Sun altitude
Rises 15:02:36 0° 240° (WSW) 3,878 ? 45.8°
Reaches altitude 10° 15:05:39 10° 230° (SW) 2,955 ? 45.4°
Maximum altitude 15:11:51 30° 173° (S) 1,853 ? 44.5°
Drops below altitude 10° 15:17:59 10° 115° (ESE) 2,915 ? 43.5°
Sets 15:20:58 0° 105° (ESE) 3,818 ? 43.1°
